Location: Squamish
(49.7000°N, 123.1500°W)
Time: 05:06:54
(UTC-07:00)

Daily predictions for brighter satellites

Satellite Brightness Start Highest point End
(mag) Time Altitude Azimuth Time Altitude Azimuth Time Altitude Azimuth
Cosmos 2219 Rocket 2.6 00:04:32 34° WSW 00:06:55 59° WNW 00:12:32 10° NNE
Cosmos 1818 4.2 00:04:32 19° WSW 00:08:19 54° NW 00:13:42 10° NE
Cosmos 2058 Rocket 4.0 00:12:24 40° NE 00:12:24 40° NE 00:15:31 10° NNE
Meteor 1-24 Rocket 4.2 00:06:52 10° N 00:12:32 52° ENE 00:13:08 50° E
Cosmos 2228 4.1 00:13:48 37° NE 00:13:48 37° NE 00:16:50 10° NNE
CZ-2C R/B 2.9 00:13:35 78° N 00:13:35 78° N 00:18:08 10° NNW
Meteor 2-5 Rocket 3.7 00:09:39 10° N 00:15:35 81° ENE 00:16:04 74° SE
SL-16 R/B 2.7 00:17:27 44° E 00:17:27 44° E 00:22:01 10° NE
Cosmos 1758 Rocket 4.2 00:14:54 10° NNW 00:18:27 52° NW 00:18:27 52° NW
COSMOS 2428 4.2 00:15:37 10° WSW 00:20:50 34° NW 00:26:02 10° NNE
USA 215 3.5 00:18:25 30° E 00:21:50 68° NNE 00:28:20 10° WNW
RESURS DK-1 3.6 00:25:46 37° NNE 00:25:46 37° NNE 00:28:22 10° NNE
Terra 3.9 00:30:14 16° W 00:30:51 16° W 00:33:50 10° NW
Cosmos 1943 Rocket 4.0 00:26:36 10° NNW 00:31:03 24° NE 00:33:47 17° E
COSMOS 2455 2.7 00:26:28 10° NW 00:32:30 74° WSW 00:32:39 74° SW
Cosmos 2333 Rocket 3.0 00:31:37 31° WSW 00:33:53 47° NW 00:39:21 10° NNE
Cosmos 1777 Rocket 4.1 00:28:40 10° NNW 00:33:35 68° W 00:33:35 68° W
Cosmos 2184 Rocket 3.8 00:35:09 75° S 00:35:43 89° WNW 00:41:59 10° N
Cosmos 1707 4.3 00:32:51 10° NNW 00:35:15 33° NW 00:35:15 33° NW
Cosmos 2074 Rocket 3.9 00:37:25 72° SSW 00:38:06 84° W 00:44:25 10° N
Nadezhda 3 Rocket 3.9 00:37:22 10° N 00:43:47 77° E 00:44:24 70° SE
ALOS 2 3.3 00:45:14 51° NW 00:45:14 51° NW 00:48:38 10° NNW
CZ-4B R/B 4.2 00:46:28 14° NNE 00:46:28 14° NNE 00:47:13 10° NNE
Cosmos 1340 Rocket 4.4 00:44:43 10° NNW 00:47:04 31° NW 00:47:04 31° NW
Cosmos 2369 Rocket 2.9 00:45:49 10° NNW 00:51:20 46° NE 00:52:24 41° E
Cosmos 2237 Rocket 2.9 00:50:57 39° W 00:52:28 48° NW 00:57:56 10° NNE
Cosmos 2341 Rocket 4.3 00:52:25 52° ESE 00:52:43 53° E 00:58:45 10° NNE
Meteor 2-8 Rocket 4.3 00:47:16 10° NNW 00:53:26 76° W 00:53:48 73° SW
In-Cosmos 22 4.1 00:49:53 10° N 00:54:56 79° NNE 00:54:56 79° NNE
Meteor 2-19 Rocket 4.3 01:08:30 83° S 01:08:46 89° E 01:14:55 10° N
Cosmos 1610 Rocket 4.4 01:10:11 67° WSW 01:10:45 72° WNW 01:17:03 10° N
Cosmos 489 Rocket 4.3 01:06:10 10° NNW 01:12:22 75° WSW 01:12:30 75° WSW
Iridium 4 Rocket 3.9 01:19:34 51° NNE 01:19:34 51° NNE 01:22:50 10° N
Cosmos 1937 Rocket 3.9 01:17:22 10° NNW 01:22:37 55° ENE 01:22:51 55° ENE
NOSS 2-2 (C) 4.3 01:24:31 53° N 01:24:31 53° N 01:28:38 10° NE
Mayak -0.2 01:22:15 10° N 01:25:11 44° N 01:25:11 44° N
GEOS 3 Rocket 3.8 01:26:52 62° ENE 01:27:23 67° NE 01:32:40 10° NW
Cosmos 1898 Rocket 3.6 01:22:28 10° NNW 01:27:26 75° NNE 01:27:26 75° NNE
Cosmos 2154 Rocket 4.1 01:34:27 58° WSW 01:35:02 61° WNW 01:41:12 10° N
Cosmos 1570 Rocket 4.1 01:36:51 74° NE 01:36:51 74° NE 01:41:38 10° NNE
Lacrosse 5 3.3 01:33:40 10° WNW 01:38:22 36° N 01:43:04 10° ENE
Cosmos 1470 4.5 01:42:49 30° NE 01:42:49 30° NE 01:45:04 10° NNE
Cosmos 2263 4.2 01:35:53 10° NNW 01:41:31 74° ENE 01:41:47 73° E
ATLAS CENTAUR R/B 3.7 01:33:23 10° NW 01:41:08 39° W 01:41:08 39° W
Cosmos 990 Rocket 4.1 01:37:32 10° NNW 01:42:42 69° ENE 01:42:42 69° ENE
CZ-2C R/B 3.9 01:40:36 10° N 01:45:18 32° WNW 01:46:16 30° W
Meteor 2-14 Rocket 4.5 01:48:22 62° ESE 01:48:52 65° E 01:54:59 10° NNE
Cosmos 1959 Rocket 4.4 01:48:32 69° SE 01:48:59 72° E 01:55:05 10° NNE
Meteor 2-15 4.2 01:43:22 10° NNW 01:49:31 82° W 01:49:50 78° SW
USA 229 DEB 4.5 01:43:34 10° NW 01:50:30 53° NE 01:57:35 10° ESE
USA 229 4.5 01:43:41 10° NW 01:50:36 52° NE 01:57:40 10° ESE
Cosmos 1603 3.6 01:51:58 89° NNE 01:51:58 89° NNE 01:57:36 10° NNE
CENTAUR R/B 4.2 01:45:56 10° WNW 01:51:50 26° WSW 01:51:50 26° WSW
Cosmos 2150 Rocket 4.0 01:48:36 10° NNW 01:53:23 76° N 01:53:23 76° N
PSLV R/B 4.5 01:54:12 10° NNE 01:58:00 45° ENE 01:58:00 45° ENE
SL-16 R/B 3.3 01:59:19 30° W 02:00:53 36° NW 02:06:06 10° NNE
Cosmos 1814 Rocket 4.5 02:02:35 50° E 02:02:35 50° E 02:07:22 10° NNE
Cosmos 841 Rocket 4.5 02:04:43 35° E 02:04:43 35° E 02:09:15 10° NE
USA 215 3.4 02:05:44 51° WSW 02:05:44 51° WSW 02:11:25 10° WNW
Cosmos 2298 Rocket 4.2 01:59:51 10° NNW 02:04:33 63° WNW 02:04:33 63° WNW
SL-8 Rocket 3.9 02:04:35 70° SW 02:05:13 76° W 02:11:28 10° N
H-2A R/B 3.6 02:04:06 10° NNE 02:06:42 37° NE 02:06:42 37° NE
Resurs 1-4 Rocket 4.4 02:05:57 10° NE 02:08:39 14° E 02:10:36 12° ESE
Cosmos 1953 3.6 02:10:31 37° NNW 02:10:31 37° NNW 02:13:12 10° N
Meteor 2-21 4.4 02:11:22 65° WSW 02:12:01 71° WNW 02:18:16 10° N
ADEOS Rocket 3.8 02:10:15 10° NNE 02:15:14 34° E 02:16:10 32° ESE
Cosmos 1943 Rocket 2.0 02:09:54 10° NNW 02:15:15 78° W 02:15:15 78° W
Cosmos 2218 Rocket 3.9 02:14:36 66° SW 02:15:27 77° W 02:21:53 10° N
Cosmos-2242 3.5 02:17:46 57° NE 02:17:46 57° NE 02:21:28 10° NNE
CZ-4B R/B 4.3 02:20:02 12° NW 02:20:02 12° NW 02:20:17 10° NW
Cosmos 1656 Rocket 4.2 02:13:17 10° NNW 02:18:55 57° NE 02:21:12 34° ESE
Cosmos 1500 Rocket 4.3 02:17:24 10° N 02:21:41 46° ENE 02:21:44 46° ENE
Cosmos 2058 4.0 02:18:20 10° N 02:22:08 38° ENE 02:22:08 38° ENE
SL-16 R/B 3.6 02:18:25 17° ESE 02:22:42 40° ENE 02:28:25 10° N
Cosmos 332 Rocket 3.9 02:25:51 69° NW 02:25:51 69° NW 02:30:37 10° NNE
CZ-2D R/B 4.1 02:22:41 10° NE 02:26:31 20° E 02:28:34 16° ESE
SL-24 R/B - RUBIN 2 4.3 02:29:11 66° SSW 02:30:10 87° SE 02:36:14 10° NE
Cosmos 2369 Rocket 3.2 02:30:06 10° NW 02:34:09 33° W 02:34:09 33° W
Cosmos 1626 3.1 02:39:43 10° N 02:42:34 47° NNE 02:42:34 47° NNE
Cosmos 1000 Rocket 4.4 02:37:42 10° N 02:44:01 85° E 02:45:44 52° SSE
Cosmos 2221 4.1 02:44:23 25° ESE 02:45:09 27° E 02:48:48 10° NNE
Cosmos 372 Rocket 4.2 02:40:39 10° NNW 02:45:48 67° ENE 02:47:21 44° SE
Cosmos 371 Rocket 3.6 02:47:27 54° WNW 02:47:36 54° WNW 02:52:23 10° NNE
Cosmos 1943 3.3 02:50:29 55° WSW 02:51:26 64° WNW 02:57:08 10° NNE
Cosmos 540 Rocket 4.0 02:53:20 42° SE 02:54:08 46° ESE 02:59:01 10° NE
Cosmos 1763 Rocket 3.3 02:55:43 69° WSW 02:56:08 73° WNW 03:01:14 10° NNE
BREEZE-M DEB (TANK) 3.6 02:55:03 53° SSW 02:56:22 68° SSE 03:14:25 10° ENE
CBERS-1 4.3 02:53:56 10° NNE 02:59:00 59° E 03:00:02 49° SSE
AQUA 4.3 02:54:46 10° NNE 02:59:27 52° E 03:00:15 46° SE
Mayak 1.4 03:01:06 10° NW 03:01:17 10° NW 03:01:27 10° WNW
Cosmos 2151 3.1 02:58:38 10° NNW 03:02:25 67° NW 03:02:25 67° NW
BREEZE-M DEB (TANK) 3.7 02:54:06 10° WSW 03:07:10 58° S 03:10:15 10° E
Cosmos 1842 Rocket 3.4 03:07:33 85° W 03:07:35 85° W 03:11:59 10° N
UNK 3.9 03:08:22 46° SE 03:09:37 68° ENE 03:14:11 10° N
Cosmos 967 Rocket 4.5 03:12:39 46° WSW 03:14:39 75° NW 03:21:02 10° NE
Cosmos 304 Rocket 3.6 03:14:19 69° SW 03:14:52 83° WNW 03:19:42 10° NNE
Cosmos 2098 Rocket 3.5 03:14:11 48° S 03:15:43 76° E 03:20:22 10° NNE
Cosmos 1743 Rocket 4.4 03:11:35 10° NNW 03:15:09 38° WNW 03:15:09 38° WNW
Sich 1 4.2 03:15:43 10° N 03:19:54 41° ENE 03:22:30 20° SE
Cosmos 1125 Rocket 3.5 03:14:54 10° NNW 03:20:02 59° WSW 03:20:36 56° SW
Lacrosse 5 2.4 03:17:03 10° NW 03:22:05 59° NNE 03:27:06 10° ESE
Cosmos 1400 Rocket 2.8 03:18:28 10° N 03:22:26 76° ENE 03:22:48 68° SE
SL-08 R/B 3.4 03:24:42 54° WSW 03:24:54 54° W 03:29:37 10° NNW
Helios 1A Rocket 3.0 03:21:11 10° N 03:25:15 60° WNW 03:25:22 60° W
Gblst 52 Del rocket 4.2 03:23:09 40° WSW 03:25:25 88° SSE 03:31:03 10° ENE
Cosmos 1703 4.0 03:22:38 10° NNW 03:25:41 41° WNW 03:25:41 41° WNW
Cosmos 1242 Rocket 3.1 03:28:07 48° NW 03:28:07 48° NW 03:31:07 10° N
IRS-1C 4.1 03:24:57 10° NNE 03:30:21 83° ESE 03:32:12 43° S
NPP 3.6 03:25:15 10° NNE 03:30:40 75° WNW 03:32:17 46° SW
COBE Rocket 4.2 03:26:02 10° N 03:30:57 53° WNW 03:31:57 45° WSW
USA 229 DEB 3.9 03:34:42 10° NW 03:41:35 52° WSW 03:48:35 10° SSE
USA 229 3.9 03:34:49 10° NW 03:41:41 52° WSW 03:48:41 10° SSE
H-2A R/B 4.3 03:40:39 10° NNW 03:43:07 17° WNW 03:43:18 16° WNW
Cosmos 841 Rocket 4.3 03:44:49 31° W 03:46:24 39° WNW 03:51:17 10° NNE
NOSS 3-1 (A) 4.1 03:39:17 10° NW 03:46:42 83° NE 03:55:02 10° SE
Resurs 1-4 Rocket 2.0 03:43:58 10° NNE 03:49:16 87° ESE 03:51:41 34° SSW
Cosmos 1908 3.1 03:50:09 60° SW 03:50:39 69° WNW 03:54:29 10° N
Cosmos 1633 Rocket 3.3 03:47:13 10° N 03:51:36 69° ENE 03:54:31 20° SSE
COSMOS 2406 3.2 03:49:24 34° SSW 03:51:57 78° ESE 03:57:41 10° NNE
Cosmos 2123 Rocket 4.1 03:46:49 10° NNW 03:52:53 54° W 03:55:39 31° SSW
BREEZE-M DEB (TANK) 2.5 03:54:21 49° SSW 03:54:40 51° S 04:00:30 10° ESE
Cosmos 1300 3.7 03:53:30 24° SSE 03:55:25 43° E 03:59:05 10° NNE
Cosmos 1821 Rocket 4.5 03:55:42 31° WSW 03:58:09 45° WNW 04:04:06 10° N
Cosmos 1943 Rocket 4.1 03:55:41 10° WNW 03:56:44 12° W 03:56:44 12° W
Cosmos 2058 4.5 03:55:46 10° NW 03:58:20 21° WNW 03:58:20 21° WNW
Cosmos 1980 Rocket 4.4 03:54:51 10° NNW 03:59:34 27° NE 04:04:17 10° E
ARIANE 5 R/B 2.5 03:54:33 10° NNE 03:59:50 90° SE 04:02:35 29° SSW
ADEOS Rocket 3.4 03:55:48 10° N 04:00:55 40° WNW 04:03:07 28° WSW
SL-16 R/B 2.9 04:03:30 28° SSW 04:06:18 44° W 04:12:13 10° NNW
CZ-2D R/B 2.1 04:01:47 10° N 04:07:10 71° WNW 04:09:54 29° SSW
SL-27 R/B 2.7 04:06:13 40° S 04:07:12 62° ESE 04:10:39 10° NNE
Cosmos 2278 4.0 04:02:21 10° NNW 04:08:00 68° ENE 04:13:38 10° SE
Cosmos 1934 Rocket 4.3 04:06:12 29° SW 04:08:54 47° WNW 04:14:47 10° N
Cosmos 1697 Rocket 3.8 04:09:24 10° NNW 04:14:53 47° NE 04:20:21 10° SE
NOSS 3-1 (C) 4.0 04:07:51 10° NW 04:15:12 63° SW 04:23:21 10° SSE
Cosmos 1328 Rocket 4.0 04:15:01 16° S 04:18:19 60° E 04:22:37 10° NNE
Cosmos 2221 3.4 04:21:16 28° WSW 04:22:37 34° WNW 04:26:36 10° N
MOS 1 Rocket 3.3 04:19:29 10° N 04:23:43 55° WNW 04:25:54 27° SW
Cosmos 1666 Rocket 3.9 04:22:14 10° NNW 04:26:29 45° W 04:28:46 24° SSW
Cosmos 1605 Rocket 4.4 04:23:21 23° SW 04:27:12 51° WNW 04:33:27 10° N
Cosmos 1805 Rocket 4.5 04:24:07 10° NNW 04:28:00 30° W 04:29:12 26° WSW
Cosmos 1315 Rocket 3.3 04:24:40 10° NNW 04:28:28 39° W 04:29:56 28° SW
IRS-1D 3.9 04:23:32 10° N 04:28:28 48° WNW 04:31:26 23° SW
Cosmos 1726 2.4 04:31:50 29° SW 04:33:22 48° WNW 04:37:01 10° N
Cosmos 1933 Rocket 3.6 04:30:50 10° N 04:35:21 88° ENE 04:39:49 10° S
Cosmos 773 Rocket 4.3 04:31:00 15° S 04:35:25 68° ESE 04:40:43 10° NNE
Tiangong 2 3.7 04:35:03 10° SSE 04:35:43 10° SSE 04:36:23 10° SE
ADEOS II 3.1 04:30:54 10° NNE 04:35:57 46° E 04:40:59 10° S
Cosmos 2061 Rocket 4.2 04:29:32 10° S 04:35:58 78° E 04:42:23 10° NNE
COSMOS 2487 4.4 04:34:26 10° SSE 04:37:25 26° ESE 04:40:26 10° NE
Cosmos 2082 Rocket 3.6 04:32:42 10° S 04:37:44 35° ESE 04:42:49 10° NE
Cosmos 292 Rocket 4.1 04:40:51 21° SW 04:43:52 53° WNW 04:48:37 10° NNE
ADEOS 4.0 04:41:15 10° N 04:46:14 46° WNW 04:49:53 18° SW
Cosmos 2016 Rocket 4.2 04:40:11 10° S 04:46:16 74° E 04:52:23 10° NNE
Cosmos 1151 Rocket 3.3 04:42:20 10° S 04:46:35 68° E 04:50:52 10° NNE
Shenzhou-11 Module 4.2 04:47:29 13° S 04:48:23 14° SSE 04:50:07 10° SE
Cosmos 1892 2.7 04:45:57 10° N 04:49:48 89° WNW 04:53:40 10° S
UNKNOWN OBJECT B 3.3 04:48:07 10° N 04:52:01 46° WNW 04:54:50 17° SW
Meteor 2-3 Rocket 3.7 04:46:33 10° NNW 04:52:13 86° W 04:57:55 10° S
CZ-2D R/B 3.6 04:48:21 10° N 04:52:15 51° WNW 04:55:07 17° SW
Okean O Rocket 2.9 04:50:45 10° NNE 04:54:56 40° E 04:59:05 10° SSE
Sich 1 4.3 04:53:55 10° NW 04:57:21 23° W 04:59:26 16° SW
Cosmos 1825 4.1 04:56:05 10° N 04:59:35 33° ENE 05:03:04 10° SE
Cosmos 1725 Rocket 4.3 04:54:24 10° S 05:00:31 69° E 05:06:40 10° NNE
Cosmos 1408 4.3 04:58:26 10° N 05:01:49 35° ENE 05:05:10 10° SE
Cosmos 1656 3.7 04:56:38 10° NNW 05:02:18 65° WSW 05:07:55 10° SSE
USA 161 1.4 05:02:17 27° WSW 05:02:35 29° W 05:04:19 10° NW
Cosmos 2369 3.9 04:57:37 10° NW 05:03:06 51° WSW 05:08:31 10° S
Lacrosse 5 2.2 05:00:12 10° WNW 05:04:59 42° SW 05:09:45 10° SSE
Cosmos 2100 Rocket 4.2 04:59:36 10° SSW 05:05:52 58° WNW 05:12:10 10° N
Cosmos 1802 Rocket 4.0 04:59:57 10° SSW 05:06:08 71° W 05:12:29 10° N
BREEZE M DEB (TANK) 4.3 05:04:40 14° WSW 05:07:22 23° SSW 05:15:11 10° SSE
Cosmos 2322 Rocket 4.3 05:04:29 10° NNW 05:09:32 31° NE 05:14:32 10° ESE
CZ-4B R/B 3.5 05:07:02 10° NNE 05:11:30 70° ESE 05:16:00 10° S
Gblst 52 Del rocket 4.4 05:11:31 10° W 05:17:22 75° N 05:22:51 10° E
Cosmos 1470 Rocket 4.4 05:15:12 10° NNW 05:18:59 30° W 05:22:47 10° SSW
SL-16 R/B 4.0 05:16:11 10° NNW 05:21:26 37° NE 05:26:40 10° ESE
Tsikada Rocket 4.0 05:15:08 10° NNW 05:21:26 74° W 05:27:47 10° S
Meteor 1-27 4.2 05:17:41 10° SSW 05:23:19 71° WNW 05:28:56 10° N
Cosmos 1371 Rocket 4.1 05:18:26 10° NNW 05:23:42 87° ENE 05:28:58 10° SSE
Resurs 1-4 Rocket 3.8 05:25:01 10° NNW 05:28:27 18° NW 05:31:55 10° W
Cosmos 2173 Rocket 4.5 05:22:57 10° SW 05:28:57 44° WNW 05:35:03 10° N
Cosmos 1300 4.4 05:28:42 10° WSW 05:31:22 18° WNW 05:34:03 10° NNW
ATLAS 2AS CENTAUR R/B 3.2 05:23:22 10° NW 05:31:32 83° NE 05:39:09 10° SE
Cosmos 1833 Rocket 2.8 05:26:23 10° SSW 05:32:02 84° ESE 05:37:43 10° NNE
Cosmos 1515 Rocket 4.3 05:28:10 10° SW 05:32:14 36° WNW 05:36:22 10° N
Cosmos 923 Rocket 4.1 05:30:55 10° SSW 05:36:06 67° WNW 05:41:23 10° NNE
Cosmos 2228 Rocket 4.1 05:32:39 10° SW 05:36:31 29° WNW 05:40:24 10° N
ARIANE 5 R/B 4.3 05:34:54 10° NNW 05:38:16 18° NW 05:41:38 10° W
Cosmos 1624 Rocket 4.0 05:34:20 10° NNW 05:39:38 84° WSW 05:44:51 10° SSE
Cosmos 1869 Rocket 3.6 05:36:41 10° NNW 05:41:08 66° W 05:45:32 10° S
